Weather History for KMSY

Nearest airport to NA, NA.

See history from more local stations
Change the Weather History Date:

Sunday, July 18, 2010

  Actual Average Record
Temperature  
Mean Temperature 81 °F -  
Max Temperature 88 °F 90 °F 129 °F (2000)
Min Temperature 75 °F 73 °F 66 °F (1965)
Cooling Degree Days 16    
Growing Degree Days 31 (Base 50)    
Moisture  
Dew Point 75 °F    
Average Humidity 83    
Maximum Humidity 94    
Minimum Humidity 67    
Precipitation  
Precipitation 0.64 in - - ()
Sea Level Pressure  
Sea Level Pressure 30.05 in    
Wind  
Wind Speed 6 mph (South)    
Max Wind Speed 18 mph    
Max Gust Speed 24 mph    
Visibility 9 miles    
Events Rain , Thunderstorm    
Averages and records for this station are not official NWS values.
T = Trace of Precipitation, MM = Missing Value Source: NWS Daily Summary

Daily Weather History Graph

Daily Weather History Graph

Search for Another Location

Airport or City:

Trip Planner

Search our weather history database for the weather conditions in past years. The results will help you decide how hot, cold, wet, or windy it might be!

Date:

Astronomy

Jul. 18, 2010 Rise Set
Actual Time 6:11 AM CDT 8:02 PM CDT
Civil Twilight 5:45 AM CDT 8:29 PM CDT
Nautical Twilight 5:12 AM CDT 9:01 PM CDT
Astronomical Twilight 4:38 AM CDT 9:35 PM CDT
Moon 1:42 PM CDT (7/18) 12:01 AM CDT (7/18)
Length of Visible Light 14h 44m
Length of Day
13h 50m
First Quarter, 53% of the Moon is Illuminated
Jul 18
First Quarter
Jul 25
Full
Aug 3
Last Quarter
Aug 9
New
Aug 16
First Quarter

Hourly Weather History & Observations

Time (CDT) Temp. Heat Index Dew Point Humidity Pressure Visibility Wind Dir Wind Speed Gust Speed Precip Events Conditions
12:53 AM 82.0 °F 89.4 °F 75.9 °F 82% 30.04 in 10.0 mi SSE 6.9 mph - N/A   Mostly Cloudy
1:53 AM 80.1 °F 86.4 °F 78.1 °F 94% 30.04 in 10.0 mi SE 3.5 mph - 0.04 in   Mostly Cloudy
2:53 AM 80.1 °F 86.4 °F 78.1 °F 94% 30.02 in 10.0 mi ESE 5.8 mph - N/A   Mostly Cloudy
3:43 AM 80.6 °F 86.2 °F 75.2 °F 84% 30.02 in 10.0 mi SE 9.2 mph - N/A   Overcast
3:53 AM 79.0 °F - 75.0 °F 88% 30.03 in 10.0 mi SE 10.4 mph - N/A   Mostly Cloudy
4:33 AM 78.8 °F - 73.4 °F 83% 30.02 in 10.0 mi ESE 3.5 mph - N/A   Mostly Cloudy
4:53 AM 79.0 °F - 73.9 °F 84% 30.03 in 10.0 mi Calm Calm - N/A   Mostly Cloudy
5:53 AM 79.0 °F - 75.0 °F 88% 30.05 in 10.0 mi Calm Calm - N/A   Mostly Cloudy
6:53 AM 80.1 °F 85.8 °F 77.0 °F 90% 30.06 in 10.0 mi Calm Calm - N/A   Mostly Cloudy
7:53 AM 82.9 °F 92.8 °F 78.1 °F 85% 30.07 in 10.0 mi SSE 4.6 mph - N/A   Mostly Cloudy
8:17 AM 78.8 °F - 73.4 °F 83% 30.08 in 2.0 mi SW 18.4 mph 24.2 mph 0.00 in Rain Heavy Rain
8:21 AM 75.2 °F - 73.4 °F 94% 30.08 in 2.5 mi SSW 12.7 mph 24.2 mph 0.09 in Rain Rain
8:34 AM 75.2 °F - 73.4 °F 94% 30.08 in 4.0 mi South 10.4 mph - 0.32 in Rain Light Rain
8:53 AM 75.9 °F - 73.9 °F 94% 30.09 in 6.0 mi South 8.1 mph - 0.51 in Rain Light Rain
9:53 AM 77.0 °F - 75.0 °F 94% 30.09 in 7.0 mi SSE 4.6 mph - 0.05 in Rain Light Rain
10:53 AM 80.1 °F 84.5 °F 73.9 °F 81% 30.10 in 10.0 mi Calm Calm - 0.04 in Rain Light Rain
11:53 AM 80.1 °F 85.1 °F 75.0 °F 85% 30.10 in 10.0 mi Calm Calm - 0.00 in   Overcast
12:53 PM 82.0 °F 89.4 °F 75.9 °F 82% 30.09 in 10.0 mi Calm Calm - 0.00 in Rain Light Rain
1:53 PM 84.0 °F 93.7 °F 77.0 °F 79% 30.06 in 10.0 mi SSE 3.5 mph - 0.00 in   Overcast
2:53 PM 87.1 °F 96.3 °F 75.0 °F 67% 30.05 in 10.0 mi South 11.5 mph - N/A   Mostly Cloudy
3:29 PM 86.0 °F 95.1 °F 75.2 °F 70% 30.03 in 10.0 mi South 8.1 mph - N/A Thunderstorm Thunderstorm
3:53 PM 84.0 °F 91.9 °F 75.0 °F 74% 30.06 in 10.0 mi SSW 9.2 mph - N/A Thunderstorm Thunderstorm
4:05 PM 84.2 °F 92.3 °F 75.2 °F 74% 30.04 in 10.0 mi SSW 4.6 mph - N/A   Overcast
4:36 PM 84.2 °F 90.9 °F 73.4 °F 70% 30.04 in 10.0 mi SW 8.1 mph - N/A Thunderstorm Thunderstorm
4:53 PM 84.0 °F 91.2 °F 73.9 °F 72% 30.05 in 10.0 mi SSW 3.5 mph - N/A Thunderstorm Thunderstorm
5:00 PM 84.2 °F 90.9 °F 73.4 °F 70% 30.04 in 10.0 mi SSW 6.9 mph - N/A   Overcast
5:53 PM 82.0 °F 90.2 °F 77.0 °F 85% 30.06 in 10.0 mi West 5.8 mph - 0.00 in Rain Light Rain
6:53 PM 80.1 °F 84.2 °F 73.0 °F 79% 30.05 in 10.0 mi West 3.5 mph - 0.00 in   Overcast
7:53 PM 80.1 °F 84.5 °F 73.9 °F 81% 30.04 in 10.0 mi Calm Calm - 0.00 in Rain Light Rain
8:53 PM 80.1 °F 85.4 °F 75.9 °F 87% 30.04 in 10.0 mi SE 3.5 mph - 0.00 in   Overcast
9:53 PM 80.1 °F 85.4 °F 75.9 °F 87% 30.05 in 10.0 mi SE 3.5 mph - N/A   Overcast
10:53 PM 80.1 °F 85.1 °F 75.0 °F 85% 30.06 in 10.0 mi Calm Calm - N/A   Mostly Cloudy
11:53 PM 79.0 °F - 75.0 °F 88% 30.05 in 10.0 mi Calm Calm - N/A   Mostly Cloudy